User: anonymous   Login
Location: Springfield
(37.2150°N, 93.2980°W)
Time: 17:25:18
(UTC-05:00)
Language:

Iridium 62 - Orbit

View from above orbital plane
View from above orbital plane
View from above satellite
View from above satellite

Ground track
Ground track

The orbit data is extracted from the following two-line orbital elements,

1 25285U 98021A   16183.55712733  .00000031  00000-0  40579-5 0  9998
2 25285  86.3950  10.4914 0002307  88.7509 271.3951 14.34215180954761
Epoch (UTC): 01 July 2016 13:22:15
Eccentricity: 0.0002307
inclination: 86.3950°
perigee height: 776 km
apogee height: 779 km
right ascension of ascending node: 10.4914°
argument of perigee: 88.7509°
revolutions per day: 14.34215180
mean anomaly at epoch: 271.3951°
orbit number at epoch: 95476

The dashed part of the orbit path shows where the satellite is in the earth's shadow,  

DLR